Location: Ethel Rock
(53.4667°N, 4.5667°W)
Time: 03:51:54
(UTC+00:00)

Cosmos 2026 Rocket - Pass Details

Date: 24 October 2020
Orbit: 939 x 1002 km, 82.9° (Epoch: 25 November)

Event Time Altitude Azimuth Distance (km) Brightness Sun altitude
Rises 05:50:42 0° 185° (S) 3,707 7.0 -11.3°
Reaches altitude 10° 05:53:12 10° 185° (S) 2,765 6.4 -10.9°
Maximum altitude 05:59:35 84° 99° (E) 1,015 4.2 -10.0°
Drops below altitude 10° 06:06:00 10° 12° (NNE) 2,783 6.4 -9.0°
Sets 06:08:32 0° 12° (NNE) 3,732 7.1 -8.7°
